GFSFLT2_500_rhum_024.txt.gz
RH
6 7 3 3 4 4 4 5 5 6 8 8 11 12 17 21 19 20 26 28 28 28 26 27 27 26 26 30 33 34 34 35
7 3 3 4 4 5 6 6 7 8 9 11 15 19 21 17 17 23 25 27 26 28 24 22 22 22 24 27 28 30 33 34
2 3 4 5 6 6 7 7 10 11 17 24 26 21 18 19 20 21 19 19 21 26 29 27 24 23 28 28 32 34 33 34
5 5 7 7 8 8 10 12 17 27 31 32 31 32 29 30 29 22 26 22 20 24 30 31 31 32 32 30 28 25 28 34
8 9 8 10 14 16 18 24 29 32 41 61 73 77 76 62 61 34 26 29 29 29 32 36 39 41 37 32 28 25 24 26
15 16 17 19 22 23 27 50 64 48 82 98 93 78 64 62 48 27 29 33 38 38 37 38 37 37 36 33 30 32 31 28
12 16 20 21 23 35 41 57 55 81 99 61 36 38 41 29 24 32 29 34 38 37 38 40 40 39 40 41 40 40 40 38
19 34 25 23 27 32 61 78 83 95 78 44 25 22 22 22 27 27 37 43 43 45 47 49 49 47 45 40 33 24 19 18
28 25 56 78 86 81 84 98 98 71 31 24 20 20 27 31 36 50 57 54 57 57 56 51 32 16 14 13 13 14 13 12
20 44 78 85 92 96 97 97 92 72 37 40 36 42 63 67 67 66 56 56 54 38 19 15 14 14 14 15 15 14 13 11
44 75 80 100 98 97 88 94 98 69 56 53 68 83 60 59 64 62 58 29 15 14 15 15 15 15 15 15 16 16 16 14
59 69 66 96 97 80 72 65 59 53 57 72 66 63 58 65 67 50 26 20 20 20 19 20 18 17 17 16 16 16 15 14
95 74 98 77 68 81 72 61 66 66 66 65 61 68 69 64 40 24 23 25 23 21 21 22 23 22 20 19 18 17 16 16
68 53 42 37 41 59 71 71 63 64 65 69 72 68 48 28 25 23 23 25 27 31 32 34 33 26 20 18 17 18 19 20
60 41 44 64 79 64 60 65 67 68 72 70 52 33 32 33 36 43 48 47 40 33 28 18 16 18 18 18 15 13 12 14
51 73 99 91 71 62 63 66 68 64 51 42 43 48 53 58 55 38 32 25 20 16 14 16 18 18 21 23 26 26 24 19
99 99 100 86 74 76 76 84 79 66 67 64 56 50 38 32 30 25 19 15 15 16 18 23 27 34 32 30 24 15 12 10
90 97 86 89 100 96 86 73 63 58 47 38 33 33 31 28 21 15 16 18 20 23 27 33 38 32 28 20 12 9 9 10
84 65 79 96 82 66 48 46 44 41 38 38 39 33 29 23 17 19 24 26 32 38 41 37 37 33 12 9 10 20 22 19
49 63 79 55 43 41 44 46 44 43 46 44 36 31 26 20 23 27 32 40 43 44 36 38 28 9 11 17 18 33 26 50

GFSFLT2_500_rhum_030.txt.gz
RH
70 54 12 16 6 5 6 8 6 6 5 5 6 7 8 9 13 15 17 34 39 44 37 14 18 17 12 14 15 13 18 20
63 13 15 12 5 7 8 7 6 6 6 7 8 10 12 17 19 18 50 59 55 52 37 22 37 29 20 17 19 24 22 22
15 16 13 5 7 9 8 7 6 7 10 11 15 22 27 27 31 55 67 48 47 51 45 43 26 19 20 27 27 27 28 29
10 7 6 6 8 8 8 8 8 11 16 23 30 46 52 55 57 57 57 24 20 19 20 20 23 24 26 34 34 34 34 32
9 8 8 8 9 9 10 15 18 19 27 43 58 68 70 59 62 61 35 23 19 19 26 29 28 28 32 35 38 39 40 38
12 12 13 17 21 20 19 22 25 40 56 58 59 66 69 66 64 50 41 28 22 23 34 30 36 39 41 43 46 48 51 50
21 20 21 26 26 27 24 29 34 44 63 66 78 78 83 85 71 50 43 37 31 38 41 32 31 41 49 54 54 52 47 32
25 51 31 41 53 47 44 78 87 92 94 98 98 99 97 80 71 51 40 36 32 38 38 43 50 58 60 61 47 29 21 18
68 52 68 80 73 59 62 74 98 98 98 98 98 93 82 59 46 40 42 47 50 54 59 62 63 59 43 32 20 18 18 19
42 76 76 81 96 93 96 97 97 98 98 96 94 89 74 63 66 69 68 66 69 71 57 33 27 23 23 22 24 23 22 20
58 77 77 97 92 85 99 98 96 89 66 77 72 67 64 71 77 77 75 80 71 46 32 29 28 27 28 26 24 22 20 18
58 63 76 90 85 96 91 60 63 74 69 81 69 64 71 76 78 75 61 47 34 30 30 30 32 32 30 26 23 17 12 10
65 74 80 94 96 69 47 40 77 92 80 61 44 44 52 56 47 41 40 39 44 45 46 45 40 34 32 29 22 17 14 13
60 56 58 79 70 50 45 62 92 99 74 52 52 70 73 73 72 68 68 64 57 53 51 42 38 34 29 19 14 15 14 11
59 83 95 76 57 71 69 66 81 66 51 60 72 71 66 63 63 63 59 57 55 48 42 40 35 28 20 18 16 19 20 22
94 86 59 41 45 47 50 48 39 37 46 57 60 62 64 64 60 57 58 55 47 45 44 40 37 31 28 27 24 23 23 20
31 27 27 24 36 43 28 23 25 33 42 50 55 53 56 58 63 65 58 52 51 46 38 31 30 32 33 30 29 27 27 27
18 18 20 21 19 19 20 23 28 35 43 49 50 56 63 67 70 63 59 53 45 35 32 35 33 34 32 31 28 28 30 18
19 20 20 20 20 20 22 25 33 35 34 33 38 51 69 74 68 60 53 42 33 36 42 43 35 34 33 31 32 22 9 8
24 25 24 24 24 24 27 30 30 31 32 38 48 61 68 65 58 51 44 44 50 52 41 35 36 36 34 24 11 9 10 18

GFSFLT2_500_rhum_036.txt.gz
RH
96 96 96 94 92 62 37 13 8 6 5 9 6 5 5 6 7 7 10 13 32 33 29 34 46 38 32 28 25 26 21 16
96 97 95 92 77 40 27 14 6 5 6 5 4 5 6 7 7 11 13 23 40 41 41 41 40 34 29 26 22 24 21 16
96 95 88 49 30 16 5 5 6 6 5 5 6 8 10 13 15 17 29 38 41 44 52 49 43 37 35 32 32 29 22 19
93 62 19 19 11 4 5 8 9 11 11 11 43 28 23 34 43 45 50 58 55 53 53 50 44 40 38 35 32 29 27 24
40 34 18 7 5 7 10 12 18 18 24 19 28 48 55 71 73 85 93 87 74 60 55 45 40 39 35 35 38 42 37 33
7 8 9 10 12 14 18 25 21 33 31 47 63 77 83 84 83 100 93 81 69 60 50 46 43 38 36 38 39 42 48 50
15 16 18 21 24 23 33 58 62 96 92 80 83 92 88 87 98 83 77 76 53 56 34 28 37 36 37 42 53 57 59 62
22 24 27 38 56 54 72 86 84 92 100 96 96 85 89 76 90 83 72 63 29 32 36 34 39 45 49 52 57 57 48 41
29 60 56 38 45 62 73 91 91 96 95 92 99 72 76 85 70 40 32 29 26 27 31 33 36 36 36 36 35 35 32 29
27 29 40 55 59 70 74 95 83 97 88 86 90 60 50 35 30 39 28 29 32 37 38 38 39 40 41 40 41 42 41 39
25 27 47 66 74 67 62 76 95 84 64 54 54 33 17 18 26 27 24 25 28 33 43 46 51 52 51 51 52 53 54 51
33 41 54 39 45 45 54 52 44 61 55 28 22 18 18 20 22 22 24 25 28 28 34 45 49 46 52 60 65 64 61 56
26 30 26 24 25 30 38 60 54 27 21 21 19 19 21 21 21 23 31 34 30 32 33 36 45 51 55 62 64 59 51 46
14 20 33 39 34 28 35 30 18 17 18 18 19 20 21 22 25 25 28 34 35 32 30 38 48 53 53 51 45 46 46 44
22 30 36 31 27 18 17 18 19 19 20 22 24 26 27 28 30 35 36 34 36 36 33 44 49 50 52 51 48 46 40 39
53 37 23 20 20 19 21 22 23 24 25 26 28 30 32 34 34 35 37 39 41 37 38 57 62 61 64 62 52 43 33 28
28 18 34 39 22 23 25 26 26 25 26 29 30 34 37 38 38 41 40 38 38 37 53 67 72 70 60 50 42 35 39 39
24 54 23 24 26 28 30 30 27 29 34 37 38 41 50 56 51 45 42 39 39 55 73 78 76 66 50 43 38 43 43 29
19 20 24 27 29 29 27 26 28 35 38 41 44 48 57 59 54 49 45 44 54 80 87 78 65 55 49 54 55 29 21 18
24 25 23 22 21 20 24 27 28 31 32 37 42 44 55 56 56 52 51 55 78 81 80 76 63 61 65 58 39 27 18 10

GFSFLT2_500_rhum_039.txt.gz
RH
99 97 97 97 96 95 73 42 24 11 10 6 6 11 18 8 5 7 7 11 12 18 30 42 34 38 41 42 34 28 28 27
96 96 96 93 91 94 94 74 42 22 7 26 33 9 5 5 8 13 17 22 33 40 52 55 47 50 46 42 41 36 32 31
96 96 96 90 91 79 31 25 29 33 34 10 7 9 15 26 26 35 53 70 68 74 70 58 49 42 43 38 37 35 33 32
96 94 90 74 45 19 15 10 15 10 9 13 17 23 28 43 58 62 74 81 69 78 66 58 55 42 38 40 37 36 34 32
94 81 65 44 31 14 8 11 15 18 21 33 46 52 47 64 62 62 63 61 55 61 58 38 51 46 36 30 37 47 49 33
29 14 9 9 9 10 11 20 20 41 40 73 66 72 75 66 56 57 36 52 66 59 60 44 18 26 24 23 26 31 38 32
25 16 10 13 16 19 33 47 68 76 79 73 78 63 61 66 55 36 26 37 48 17 25 15 15 22 23 24 26 33 32 35
13 15 16 30 42 45 45 60 76 89 72 86 79 62 74 77 51 31 20 18 17 18 20 20 22 25 24 24 25 29 30 32
17 17 22 34 39 48 59 69 72 65 60 79 72 55 64 52 27 19 18 20 21 22 22 24 24 25 28 30 31 35 43 44
30 36 40 54 63 60 75 53 49 58 62 73 54 47 30 21 19 19 19 21 22 22 23 24 23 23 24 28 30 34 44 44
29 34 37 71 58 52 49 44 40 51 66 55 27 28 19 19 20 21 23 24 25 27 29 29 28 28 29 27 37 41 46 45
30 24 38 52 44 39 70 44 48 63 40 22 20 20 21 23 26 28 29 31 32 34 35 36 35 33 32 31 46 51 55 49
40 26 28 46 52 58 42 32 17 18 20 19 20 22 25 27 28 31 33 35 38 41 41 38 36 33 29 33 49 54 54 55
22 24 28 52 46 26 20 16 18 20 20 22 24 25 27 27 29 32 38 43 48 49 43 41 36 33 34 44 44 51 54 55
23 37 39 60 26 19 18 19 21 22 24 26 26 26 28 30 33 37 44 51 57 52 50 41 35 37 49 45 37 35 32 40
34 69 42 32 26 25 22 22 24 27 28 28 27 25 24 27 34 41 47 53 55 55 52 44 42 54 53 49 52 50 45 38
19 39 24 47 25 23 25 25 23 24 23 25 24 23 24 25 26 26 31 50 51 53 52 48 58 54 52 53 54 58 56 41
30 18 19 25 23 26 25 19 18 18 19 20 21 21 22 24 26 27 28 34 46 49 51 61 63 56 61 62 60 56 56 47
19 21 23 24 22 19 19 19 20 21 21 22 23 25 26 27 30 33 78 74 63 60 62 77 73 67 57 66 77 75 68 70
17 16 17 18 18 19 21 21 22 23 24 26 28 30 31 33 40 46 79 100 97 70 79 82 74 72 78 93 87 86 88 84

GFSFLT2_500_rhum_042.txt.gz
RH
96 96 96 91 99 96 97 95 83 44 16 17 14 21 9 7 6 7 6 10 19 22 22 32 41 50 46 42 40 37 36 35
94 97 99 97 97 97 97 89 89 81 59 27 14 14 26 11 11 14 11 24 32 47 52 60 63 57 52 46 40 37 31 28
96 96 96 96 96 95 96 94 70 36 36 47 33 24 20 39 21 32 48 57 63 55 54 44 57 48 43 53 47 39 35 31
96 96 97 95 95 95 83 68 54 48 36 22 18 17 19 25 37 64 58 51 42 47 50 43 56 64 55 26 48 40 33 27
96 96 96 89 51 16 9 10 13 14 20 24 20 33 62 60 58 52 42 29 31 35 40 25 31 44 43 16 27 22 17 18
95 82 76 41 9 10 11 12 18 27 39 43 67 59 57 54 53 55 51 28 16 14 16 16 16 16 15 15 18 20 20 20
58 24 16 12 14 18 28 33 45 63 66 65 61 61 68 60 56 64 49 17 16 17 16 16 17 16 16 17 17 18 20 21
50 56 33 27 26 39 38 47 63 72 77 78 54 59 59 37 38 38 19 17 18 17 17 20 21 22 23 23 23 23 22 23
16 16 18 24 33 46 55 69 71 72 48 44 37 35 34 17 16 16 18 18 21 23 25 27 29 32 33 33 31 29 28 25
18 26 27 45 66 55 65 54 50 34 26 30 32 35 16 16 17 18 23 26 28 30 32 34 36 39 39 37 36 34 30 28
16 17 17 47 62 45 32 42 52 37 40 37 18 16 18 19 22 25 28 29 31 33 37 42 47 47 43 43 40 35 32 34
37 33 21 25 27 55 54 61 37 23 17 18 20 21 23 24 27 29 29 30 33 36 43 48 52 51 50 48 40 37 38 47
19 22 23 30 60 55 44 34 23 19 20 22 23 25 25 29 29 30 31 33 34 37 44 54 56 54 54 51 44 44 54 58
19 21 41 54 83 41 20 25 21 23 23 25 25 24 24 28 28 28 28 27 27 28 30 36 43 52 51 50 49 57 59 54
20 48 71 76 42 26 36 24 23 23 26 24 21 20 23 23 25 26 26 27 26 27 29 29 37 45 48 50 56 60 52 50
22 70 64 52 32 46 28 23 24 24 24 22 20 21 22 23 24 26 27 29 31 34 38 50 87 76 68 57 66 61 52 43
45 43 43 36 29 23 24 25 24 22 21 21 21 22 24 26 27 29 30 31 34 40 43 54 99 100 93 62 61 57 54 48
45 32 28 27 33 22 24 19 20 21 21 22 24 26 28 29 31 33 33 38 56 54 42 45 56 72 62 64 66 60 49 50
32 17 19 17 20 19 22 20 20 19 20 26 30 29 31 36 61 76 48 47 91 100 79 61 92 99 74 78 77 71 68 65
27 25 18 19 20 35 20 16 32 28 23 24 22 35 65 76 84 88 57 75 73 100 80 65 71 75 86 91 93 88 82 86